Temp
6 6 6 6 6 7 7 7 7 7 7 7 8 8 8 8 8 8 7 7 6 6 6 6 7 6 6 6 5 5 5 5 5 5 4 4 4 4 3 3 2 2 1 1
5 6 6 6 6 7 7 7 7 7 7 7 8 8 8 8 7 7 6 6 6 6 6 6 6 6 6 6 6 6 5 5 5 5 4 4 4 3 3 2 2 2 1 1
4 4 5 5 5 6 6 6 6 7 7 7 8 8 8 8 7 7 7 7 6 6 6 6 6 5 6 5 5 5 5 5 5 4 4 4 3 3 2 2 1 1 1 0
4 4 2 4 5 5 6 6 6 7 7 7 8 8 8 8 7 7 6 7 6 6 6 5 6 5 5 5 5 5 5 5 4 4 3 2 2 2 2 2 1 1 0 -0
2 3 4 4 5 6 6 6 6 6 7 7 7 7 7 7 7 7 7 6 6 6 5 5 5 5 4 4 4 5 5 4 4 3 3 3 3 3 2 1 1 0 -0 -1
1 2 2 4 5 5 5 6 6 6 7 6 7 7 7 7 7 6 6 6 6 6 5 5 4 4 4 4 4 4 4 4 3 3 3 3 2 1 1 1 0 -0 -1 -1
-2 -1 2 4 4 5 5 5 6 6 6 6 6 7 7 7 6 6 6 6 6 5 4 4 4 4 3 3 4 3 3 3 3 2 2 2 1 1 0 0 -0 -1 -1 -2
-2 -1 0 3 4 4 4 5 5 5 6 6 6 6 6 6 6 5 5 5 5 4 4 4 4 3 3 3 2 2 2 2 2 1 1 0 0 -0 -0 -1 -1 -2 -2 -3
1 -1 1 2 3 3 3 3 3 3 5 6 5 6 5 5 5 5 5 5 4 4 3 4 3 3 2 2 2 2 2 1 1 1 1 -0 -0 -1 -1 -2 -3 -4 -4 -5
2 3 2 2 2 2 3 3 2 2 3 3 5 4 5 5 5 4 4 4 4 3 3 3 3 2 2 2 2 2 1 1 1 0 -0 -0 -1 -2 -2 -3 -4 -5 -6 -6
2 1 1 1 0 1 3 2 1 2 3 4 4 4 4 4 4 4 4 3 3 3 2 2 2 2 2 1 1 1 1 1 0 -0 -1 -1 -2 -3 -4 -5 -6 -7 -8 -9
1 1 1 1 1 1 0 0 -1 1 3 3 3 3 3 4 3 3 3 3 3 2 2 1 1 1 0 0 0 0 0 -0 -1 -1 -2 -3 -4 -5 -6 -7 -9 -10 -11 -10
0 1 1 1 1 2 1 1 0 1 2 2 3 2 2 2 2 2 2 2 2 2 1 1 1 0 0 -0 -0 -1 -1 -2 -3 -3 -4 -5 -6 -7 -9 -11 -12 -13 -12 -12
0 1 0 1 0 1 1 1 2 2 2 2 2 2 2 1 0 1 1 1 1 1 1 1 0 -0 -1 -1 -1 -2 -2 -4 -5 -5 -6 -7 -9 -11 -13 -13 -12 -12 -12 -13
-1 -0 0 0 0 0 0 1 1 1 1 1 1 2 2 0 -0 0 -0 0 1 1 0 0 -1 -2 -2 -2 -3 -4 -5 -6 -7 -8 -9 -11 -12 -11 -11 -11 -12 -12 -12 -12
-1 -1 -1 -1 -1 -1 -0 -0 -0 0 0 1 1 1 1 1 -0 -2 -0 -2 -1 -1 -1 -1 -2 -4 -4 -5 -6 -6 -7 -7 -8 -10 -10 -10 -10 -11 -11 -11 -12 -13 -12 -12
-2 -2 -2 -2 -2 -2 -1 -1 -0 -0 -0 -0 -0 -1 0 -0 -1 -2 -2 -2 -3 -3 -4 -4 -5 -6 -7 -8 -8 -8 -9 -9 -9 -10 -11 -11 -11 -12 -12 -13 -13 -13 -13 -14
-3 -3 -2 -2 -2 -2 -2 -2 -1 -2 -1 -1 -1 -2 -3 -3 -3 -3 -3 -4 -4 -5 -6 -7 -8 -8 -9 -9 -10 -10 -10 -11 -11 -11 -12 -12 -12 -13 -13 -14 -14 -14 -14 -15
-4 -4 -3 -2 -2 -2 -2 -3 -3 -3 -3 -3 -3 -3 -5 -5 -5 -5 -6 -6 -7 -8 -9 -9 -10 -10 -11 -11 -12 -12 -12 -12 -12 -12 -12 -13 -13 -14 -14 -14 -15 -15 -16 -16
-4 -4 -4 -4 -4 -4 -4 -3 -4 -4 -4 -4 -4 -6 -7 -7 -8 -8 -9 -9 -9 -10 -11 -11 -12 -12 -12 -12 -12 -12 -12 -13 -13 -13 -13 -14 -14 -15 -15 -16 -16 -16 -17 -17
-6 -6 -6 -6 -6 -6 -6 -7 -7 -7 -7 -8 -8 -9 -9 -10 -10 -10 -10 -11 -11 -11 -12 -12 -12 -12 -12 -12 -13 -13 -13 -14 -14 -14 -15 -15 -16 -16 -17 -17 -18 -18 -18 -19
-8 -8 -8 -8 -8 -8 -9 -9 -9 -9 -9 -9 -10 -10 -10 -10 -11 -11 -11 -11 -12 -12 -12 -13 -13 -13 -13 -13 -14 -14 -14 -15 -15 -16 -16 -17 -17 -18 -18 -19 -19 -20 -20 -21
-9 -9 -9 -9 -9 -9 -9 -9 -10 -10 -10 -10 -10 -11 -11 -11 -12 -12 -12 -12 -13 -13 -13 -14 -14 -14 -14 -15 -15 -16 -16 -17 -17 -18 -18 -19 -19 -20 -20 -21 -22 -22 -22 -23
-10 -10 -10 -10 -10 -11 -11 -11 -11 -11 -11 -12 -12 -12 -12 -12 -13 -13 -13 -14 -14 -14 -15 -15 -15 -15 -16 -16 -17 -17 -18 -18 -19 -19 -20 -21 -21 -22 -23 -23 -23 -24 -24 -24
-11 -11 -12 -12 -12 -12 -12 -13 -13 -13 -13 -13 -13 -13 -14 -14 -14 -14 -15 -15 -15 -15 -16 -16 -17 -17 -18 -18 -19 -19 -19 -20 -20 -20 -21 -22 -23 -24 -25 -25 -25 -25 -26 -26
-12 -13 -13 -13 -13 -13 -13 -13 -13 -13 -14 -14 -14 -14 -15 -15 -15 -15 -16 -16 -16 -17 -17 -17 -17 -18 -18 -19 -19 -20 -21 -21 -22 -23 -24 -25 -25 -26 -26 -27 -27 -27 -27 -27
-13 -13 -13 -13 -13 -14 -14 -14 -14 -14 -14 -15 -15 -15 -16 -16 -16 -16 -17 -17 -18 -18 -18 -19 -19 -20 -20 -21 -21 -22 -22 -23 -24 -25 -26 -26 -26 -27 -27 -27 -27 -28 -28 -28
Height
3026 3032 3038 3040 3041 3043 3043 3045 3045 3048 3049 3053 3055 3056 3057 3055 3058 3058 3058 3059 3058 3058 3059 3060 3063 3062 3058 3059 3060 3061 3064 3065 3068 3069 3070 3072 3073 3074 3075 3076 3076 3076 3075 3073
3020 3026 3031 3031 3033 3034 3036 3039 3040 3042 3042 3048 3048 3049 3050 3049 3052 3049 3051 3054 3053 3053 3053 3053 3054 3056 3056 3056 3057 3057 3059 3061 3063 3064 3065 3066 3066 3067 3068 3068 3067 3066 3064 3063
3013 3023 3027 3025 3019 3028 3031 3032 3036 3035 3038 3041 3042 3041 3044 3044 3044 3045 3046 3048 3047 3048 3047 3047 3047 3049 3050 3050 3051 3051 3052 3054 3055 3057 3058 3059 3059 3059 3059 3059 3058 3057 3054 3052
3011 3018 3019 3006 3014 3021 3024 3027 3030 3029 3032 3034 3035 3037 3037 3036 3037 3039 3041 3041 3041 3041 3041 3039 3040 3041 3042 3043 3043 3044 3044 3044 3045 3047 3049 3050 3050 3051 3050 3049 3048 3046 3044 3042
3005 3005 3005 3003 3010 3015 3018 3019 3023 3023 3025 3027 3029 3031 3030 3029 3031 3032 3034 3035 3036 3035 3034 3032 3031 3033 3035 3036 3036 3035 3036 3037 3039 3040 3041 3042 3041 3041 3039 3038 3037 3036 3034 3032
2998 2998 2997 2996 3005 3012 3014 3005 3015 3018 3020 3020 3022 3021 3023 3023 3025 3026 3028 3027 3027 3025 3025 3025 3024 3025 3027 3028 3029 3028 3029 3030 3032 3032 3033 3033 3032 3031 3030 3029 3028 3026 3024 3021
2993 2996 2995 2998 3003 3008 3008 3006 3011 3014 3014 3015 3015 3015 3015 3015 3017 3020 3020 3019 3018 3018 3017 3016 3016 3016 3018 3020 3021 3022 3023 3025 3026 3027 3026 3025 3024 3023 3022 3021 3020 3018 3015 3014
2995 2995 2996 2996 3000 3002 3002 3004 3008 3007 3008 3009 3008 3007 3009 3008 3012 3013 3012 3011 3011 3010 3010 3008 3007 3009 3010 3012 3014 3016 3017 3019 3020 3019 3018 3017 3017 3015 3014 3013 3011 3009 3007 3005
2989 2992 2993 2992 2992 2992 2995 2997 2996 2998 2997 3000 3002 3002 3002 3003 3003 3004 3004 3004 3002 3002 3001 3001 3000 3002 3004 3006 3007 3009 3011 3011 3011 3010 3009 3009 3008 3007 3006 3004 3002 3000 2997 2995
2981 2981 2987 2987 2986 2988 2987 2990 2992 2993 2990 2998 2997 2996 2996 2997 2997 2998 2996 2995 2994 2994 2994 2993 2994 2996 2998 2999 3001 3002 3002 3002 3001 3000 3000 3000 2999 2998 2996 2995 2993 2991 2988 2986
2974 2978 2980 2981 2982 2982 2982 2983 2986 2989 2988 2990 2988 2988 2990 2992 2991 2991 2990 2988 2987 2988 2988 2986 2988 2990 2992 2993 2993 2993 2993 2993 2991 2991 2990 2989 2988 2986 2984 2983 2982 2980 2979 2978
2972 2975 2976 2976 2977 2977 2978 2978 2982 2986 2984 2983 2981 2980 2983 2984 2985 2983 2982 2981 2981 2981 2981 2981 2982 2984 2985 2985 2985 2985 2986 2984 2982 2981 2979 2979 2977 2975 2973 2972 2970 2969 2969 2968
2967 2969 2972 2972 2971 2973 2975 2978 2979 2980 2978 2976 2975 2974 2975 2976 2978 2976 2975 2974 2973 2973 2973 2974 2973 2974 2975 2975 2975 2975 2975 2974 2972 2971 2969 2967 2965 2962 2961 2959 2959 2959 2959 2959
2959 2963 2964 2964 2966 2967 2969 2971 2972 2971 2969 2968 2968 2966 2967 2967 2969 2969 2967 2966 2965 2965 2965 2966 2966 2966 2965 2965 2964 2964 2963 2962 2961 2959 2957 2954 2952 2952 2952 2951 2950 2950 2948 2947
2954 2955 2955 2957 2959 2960 2960 2961 2961 2959 2960 2962 2961 2960 2960 2959 2960 2960 2959 2957 2957 2957 2957 2957 2957 2957 2956 2956 2955 2954 2953 2953 2950 2945 2942 2941 2941 2943 2944 2943 2942 2940 2939 2938
2949 2949 2951 2951 2951 2953 2954 2954 2953 2953 2953 2952 2953 2952 2951 2951 2953 2952 2951 2952 2951 2950 2948 2946 2946 2946 2946 2944 2944 2943 2940 2937 2937 2940 2942 2939 2938 2937 2936 2934 2932 2930 2928 2926
2944 2944 2945 2944 2945 2946 2946 2946 2947 2947 2946 2946 2945 2945 2943 2943 2944 2944 2943 2940 2941 2939 2938 2938 2940 2939 2939 2939 2940 2939 2938 2938 2937 2935 2933 2932 2930 2929 2927 2925 2924 2921 2919 2915
2939 2940 2941 2939 2939 2939 2939 2940 2939 2939 2938 2938 2938 2937 2936 2937 2937 2936 2935 2936 2935 2934 2934 2934 2933 2931 2930 2931 2931 2930 2930 2930 2930 2929 2928 2926 2923 2921 2918 2916 2913 2910 2906 2903
2934 2933 2933 2933 2932 2932 2932 2931 2931 2932 2932 2932 2932 2931 2929 2929 2929 2929 2929 2929 2929 2930 2928 2926 2925 2925 2925 2925 2926 2925 2925 2924 2923 2922 2919 2917 2914 2911 2908 2904 2901 2897 2893 2890
2928 2927 2927 2925 2925 2924 2924 2923 2923 2923 2924 2924 2923 2923 2922 2923 2924 2923 2923 2923 2923 2923 2923 2923 2922 2922 2921 2921 2921 2920 2918 2917 2915 2912 2910 2906 2903 2899 2895 2891 2888 2884 2880 2877
2923 2922 2920 2920 2919 2919 2919 2919 2919 2919 2919 2919 2919 2919 2920 2921 2921 2921 2921 2921 2921 2921 2920 2921 2920 2919 2917 2916 2914 2912 2909 2907 2904 2901 2897 2893 2890 2886 2882 2878 2874 2871 2867 2863
2924 2923 2922 2921 2921 2921 2921 2922 2922 2921 2921 2921 2921 2921 2921 2921 2921 2921 2920 2920 2919 2918 2918 2917 2915 2912 2910 2908 2905 2902 2899 2896 2892 2889 2885 2881 2877 2873 2869 2865 2861 2857 2853 2849
2926 2925 2924 2924 2923 2923 2923 2923 2923 2923 2923 2922 2922 2921 2920 2920 2919 2918 2918 2917 2915 2914 2912 2910 2907 2904 2901 2898 2895 2892 2888 2884 2880 2876 2873 2868 2863 2859 2855 2850 2846 2842 2838 2835
2927 2926 2925 2925 2924 2924 2924 2922 2922 2921 2921 2920 2920 2919 2918 2917 2916 2914 2912 2911 2909 2907 2905 2902 2898 2895 2892 2888 2884 2880 2876 2872 2867 2863 2858 2854 2849 2844 2839 2834 2830 2827 2824 2821
2930 2930 2929 2928 2927 2926 2925 2923 2922 2921 2920 2918 2917 2915 2913 2912 2911 2908 2906 2903 2901 2899 2895 2892 2889 2885 2881 2876 2871 2867 2862 2857 2852 2848 2843 2839 2834 2830 2826 2822 2818 2815 2812 2809
2931 2930 2929 2928 2926 2925 2923 2921 2920 2918 2917 2915 2913 2911 2908 2906 2903 2901 2899 2896 2892 2888 2884 2881 2877 2874 2869 2865 2860 2856 2850 2845 2841 2837 2832 2828 2823 2820 2816 2812 2808 2804 2802 2799
2931 2929 2928 2926 2925 2923 2921 2919 2916 2914 2912 2910 2908 2906 2903 2899 2896 2893 2890 2887 2883 2879 2875 2871 2867 2863 2858 2854 2850 2846 2841 2837 2832 2827 2823 2819 2815 2812 2808 2804 2800 2797 2794 2792
Wind_Speed
43 34 27 25 29 34 34 35 33 30 23 27 27 26 24 26 27 26 20 18 17 18 21 21 17 19 20 21 24 27 28 27 22 22 19 19 21 22 23 24 27 30 33 35
28 34 35 38 29 32 32 23 29 31 31 28 22 21 26 24 23 15 28 25 24 24 24 28 27 23 23 23 23 26 25 22 20 21 21 23 24 24 26 29 31 34 35 35
33 33 32 37 48 35 26 28 30 31 27 26 28 26 21 20 17 22 33 30 26 27 26 25 31 28 23 25 24 25 29 30 27 27 27 25 25 28 31 33 31 32 32 32
26 29 12 36 38 40 27 33 30 21 22 19 20 19 27 24 21 19 28 28 29 30 31 31 31 29 26 24 28 30 33 34 31 27 27 28 31 28 28 30 30 30 30 32
24 32 22 31 17 16 29 34 29 23 24 31 25 23 24 27 20 18 24 25 26 29 31 33 30 28 28 27 27 28 30 30 28 30 30 26 28 31 31 29 28 29 30 31
14 13 16 25 28 26 18 33 23 23 21 23 28 27 28 25 26 26 25 26 29 29 30 27 30 31 30 29 27 27 27 27 26 25 27 29 30 29 28 28 29 30 31 33
9 4 10 7 23 26 25 25 25 18 23 12 25 32 26 23 22 22 23 27 29 27 28 30 29 27 27 28 27 26 25 25 25 26 27 29 28 27 28 29 30 31 32 32
5 6 9 10 18 22 19 29 23 29 23 18 20 17 16 19 23 22 23 25 27 26 27 28 26 24 24 25 25 25 25 25 25 27 29 28 28 29 30 31 32 31 32 32
14 11 8 15 17 17 14 16 15 22 25 30 23 27 23 22 21 23 25 28 27 25 25 26 24 23 24 26 26 26 26 27 29 30 30 30 31 32 32 32 31 31 33 33
18 24 19 27 24 26 24 15 13 10 13 18 21 19 21 23 22 24 26 28 25 25 25 26 25 26 28 29 28 29 30 30 32 33 34 35 35 35 33 32 33 32 33 33
26 19 15 16 18 21 36 20 14 19 19 17 20 24 23 24 23 24 26 26 25 25 27 29 30 31 32 32 33 34 34 34 36 36 38 37 36 35 34 34 34 32 30 29
25 19 19 17 21 24 22 21 17 24 20 23 20 20 18 22 24 25 26 25 25 26 29 32 34 36 37 38 39 38 38 38 40 40 40 38 36 35 35 33 33 30 27 26
22 18 17 21 20 21 25 23 25 25 23 22 24 17 15 15 18 23 27 26 27 28 31 35 39 41 43 44 44 43 42 42 43 41 40 38 37 37 33 31 26 26 29 28
28 26 25 25 23 26 28 27 30 27 20 18 20 27 31 25 28 30 31 31 31 32 34 37 40 44 47 48 49 47 46 44 43 41 39 40 37 30 26 28 31 30 28 29
24 27 30 29 29 29 29 29 28 28 28 25 24 29 31 26 31 37 37 36 36 35 37 40 43 47 49 49 51 48 44 40 39 41 42 36 29 30 32 30 28 29 31 32
30 28 27 27 27 28 29 28 27 26 24 23 24 26 26 30 38 36 36 40 41 37 41 45 46 48 48 49 48 46 45 46 41 32 30 28 28 29 29 29 29 31 36 38
20 19 19 20 19 19 20 23 22 22 22 23 23 24 27 32 34 36 40 36 42 45 46 45 41 39 38 38 38 36 29 25 27 27 25 25 25 26 27 29 32 34 36 37
16 17 19 20 19 21 22 21 22 22 20 20 23 23 25 29 34 37 36 39 39 41 36 33 31 30 28 25 22 22 22 22 21 21 22 24 27 29 31 33 34 36 38 40
29 30 28 28 27 28 31 30 26 22 24 26 27 26 23 27 28 28 29 30 30 27 25 23 17 13 13 14 15 17 19 20 23 25 28 29 31 33 35 37 38 39 40 41
24 26 28 28 27 22 21 22 26 31 27 21 20 19 16 16 17 16 16 18 17 14 10 9 10 11 13 15 17 20 23 26 28 31 32 34 36 38 39 40 41 41 42 42
4 2 2 3 4 6 6 4 3 3 2 2 1 2 2 3 3 3 3 4 6 8 9 10 12 14 18 21 24 27 29 32 33 35 37 38 39 40 41 42 43 43 43 42
14 13 14 14 13 12 13 12 11 11 10 9 7 6 4 3 4 5 6 7 8 11 13 17 20 22 25 28 30 32 34 35 37 38 40 41 43 44 44 44 44 43 42 41
15 14 14 13 12 11 11 10 9 8 7 6 6 5 5 6 8 9 11 13 16 19 21 24 26 28 30 33 34 36 38 40 41 43 43 44 44 44 43 42 42 41 40 39
9 8 7 8 8 7 5 5 5 5 5 6 7 9 10 12 14 17 19 21 22 24 26 28 31 33 35 36 38 39 40 41 42 42 42 42 41 41 41 41 40 40 39 37
6 7 8 8 7 8 9 9 9 10 11 12 14 15 16 18 19 21 24 26 28 29 31 32 33 35 36 37 38 39 39 40 41 40 40 38 38 36 35 35 35 34 33 32
8 8 9 10 11 12 13 14 15 15 16 17 19 20 22 23 25 27 28 29 31 33 34 35 34 34 34 34 35 35 35 35 35 34 33 31 31 30 29 28 27 27 27 27
10 10 11 12 14 15 16 17 18 19 20 21 23 24 25 26 27 28 29 28 28 28 29 30 31 31 32 32 32 31 30 30 29 28 27 26 26 25 24 24 23 23 23 23
Wind_Direction
233 234 226 228 231 239 243 241 232 249 256 259 269 257 271 257 241 261 226 232 233 249 263 268 271 262 268 264 256 253 254 262 263 262 262 265 265 257 257 264 270 275 275 279
237 225 232 241 250 247 248 244 247 255 258 246 255 260 265 268 268 257 213 223 239 245 258 267 277 274 258 257 259 258 250 251 257 255 256 257 265 265 268 275 278 278 273 276
227 227 238 251 244 249 242 250 262 249 250 260 259 263 256 265 269 269 247 240 244 264 266 284 285 273 263 258 254 256 254 257 261 264 264 269 272 268 269 269 267 272 279 281
239 208 217 242 244 242 253 240 260 259 250 253 252 261 264 264 244 260 232 247 258 263 264 278 286 272 258 259 255 253 252 252 255 259 259 260 263 264 267 272 277 278 279 279
238 207 228 236 220 226 238 248 254 264 258 260 261 262 267 257 243 246 243 253 264 276 278 280 275 266 261 257 258 255 252 251 252 254 256 261 268 272 275 276 277 280 280 281
194 206 228 246 227 224 249 262 251 260 260 280 268 262 263 259 248 264 260 266 283 282 278 272 273 268 260 257 259 255 251 252 252 256 264 269 273 276 278 280 282 282 281 280
294 277 238 256 241 240 245 256 258 261 261 294 249 263 261 248 245 251 271 280 289 277 269 273 273 262 257 256 250 245 242 246 255 264 268 270 272 275 277 280 283 281 279 278
268 252 256 224 226 216 232 243 279 260 248 243 279 267 277 259 257 281 290 293 290 270 271 270 265 255 251 245 239 242 250 260 266 270 273 275 277 278 281 283 281 277 275 275
227 235 231 229 230 204 238 261 268 302 247 239 268 257 261 280 286 294 294 293 291 277 272 265 257 249 245 241 245 254 261 265 271 275 277 278 278 281 284 283 276 272 271 273
245 272 277 249 249 241 240 245 254 289 275 251 248 256 266 272 283 288 289 293 286 277 269 260 253 245 243 247 253 257 263 271 274 275 275 277 279 282 284 279 273 270 271 272
253 260 271 276 296 277 235 231 290 271 254 264 259 258 274 269 274 278 285 286 279 271 261 253 250 248 248 250 253 257 261 266 269 272 274 275 277 280 282 278 272 269 269 272
260 267 258 256 298 300 284 260 286 285 279 279 283 275 269 269 273 275 281 281 278 271 260 252 250 248 247 250 253 257 261 263 265 266 267 269 272 274 272 267 263 264 266 269
245 247 254 260 257 257 266 266 270 270 278 273 268 275 275 281 298 290 279 274 273 267 259 253 251 251 252 252 254 255 256 256 257 259 261 262 259 258 256 255 258 260 263 268
237 237 246 252 252 258 259 261 264 269 265 272 277 280 280 273 284 285 285 279 270 268 265 261 257 254 254 254 255 255 253 252 252 253 252 249 251 251 246 245 258 261 265 268
238 238 242 246 253 258 264 268 272 272 263 265 261 272 282 275 269 270 271 270 269 269 268 266 262 258 257 259 258 257 255 252 247 245 246 246 249 265 271 268 267 265 268 271
249 247 255 258 256 262 268 274 278 280 280 277 273 277 279 276 284 269 282 279 270 272 275 270 263 260 257 257 257 255 250 246 248 264 281 277 273 271 273 275 277 277 280 284
252 258 263 267 273 274 277 280 283 281 282 280 278 278 276 279 269 267 276 269 264 263 266 266 267 266 269 272 274 271 268 276 277 276 277 277 276 278 280 281 282 284 287 289
266 262 259 263 267 279 285 296 299 295 287 283 273 266 262 259 258 266 266 264 264 261 259 264 271 277 277 270 263 265 269 273 276 276 279 281 281 282 283 284 286 288 289 290
275 281 280 279 279 285 289 290 290 284 286 288 290 271 256 253 255 257 259 257 254 257 267 274 271 261 259 264 268 269 268 270 275 278 280 283 285 287 287 287 289 290 291 291
271 273 275 278 279 283 286 278 275 276 276 264 257 253 248 252 249 243 243 253 262 262 258 262 267 271 273 273 273 276 281 285 287 287 286 287 289 290 290 291 291 292 292 292
252 258 283 294 317 296 295 286 303 279 247 205 150 180 176 228 230 233 247 263 272 277 279 278 280 281 283 286 287 288 288 288 290 291 291 292 292 292 293 293 292 291 290 290
77 71 68 65 61 59 62 59 56 56 55 54 51 46 38 7 330 311 303 298 296 288 285 286 289 290 290 290 290 290 291 292 293 293 293 294 293 292 291 290 290 290 289 288
73 66 61 57 53 49 47 42 39 35 28 20 8 355 340 323 311 303 296 294 291 291 291 292 293 293 293 294 295 295 295 294 294 293 293 291 291 291 291 290 290 289 290 290
70 64 53 50 50 44 27 19 14 358 342 329 320 314 308 303 299 298 297 297 297 297 297 297 297 297 297 296 296 295 295 295 294 295 295 295 295 295 295 294 294 293 292 291
36 25 20 15 0 342 342 342 338 331 326 321 317 314 311 309 306 305 304 303 302 301 300 300 300 300 301 300 300 300 300 300 301 302 302 301 300 299 298 296 295 295 294 292
357 351 345 341 336 334 330 327 324 321 320 318 315 314 313 311 308 306 304 303 304 305 304 303 303 304 305 306 307 308 308 307 308 309 309 309 308 308 306 304 301 299 297 296
331 329 327 323 320 318 317 316 315 314 313 310 308 309 308 306 305 306 308 310 310 310 312 313 314 315 316 316 317 317 317 318 319 319 319 318 317 315 312 310 309 307 305 304